Torna al catalogo

BULGARIASAT-1

AttivoComunicazioniGEO
NORAD 42801·PAYLOAD·🇧🇬 Bulgaria

Lanciato Jun 23, 2017 da Cape Canaveral Space Force Station

Loading…

TLE

AggiornatoSource: Space-Track

Epoca: Sep 14, 2026, 06:58 UTC

1 42801U 17038A   26257.29041771  .00000005  00000-0  00000-0 0  9992
2 42801   0.0119 194.9957 0003451 353.0477 271.6753  1.00282879 33738

Traccia BULGARIASAT-1 in tempo reale con AllMySat

Download on the App Store